| time (UTC) | temp F | wind direction | speed MPH | gust MPH | rain 1hr in | rain 24hr in | rain mn in | humidity % | barometer mb |
| 20260505014526 | 65 | 345 | 3.0 | 4.0 | 0.05 | 0.29 | 0.29 | 89 | 1021.5 |
| 20260505014024 | 65 | 89 | 1.0 | 3.0 | 0.05 | 0.29 | 0.29 | 89 | 1021.5 |
| 20260505013521 | 65 | 68 | 1.0 | 6.0 | 0.07 | 0.28 | 0.28 | 89 | 1021.6 |
| 20260505013018 | 65 | 15 | 3.0 | 4.0 | 0.07 | 0.28 | 0.28 | 89 | 1021.7 |
| 20260505012516 | 65 | 46 | 0.0 | 3.0 | 0.07 | 0.27 | 0.27 | 89 | 1021.8 |
| 20260505012013 | 65 | 80 | 0.0 | 2.0 | 0.05 | 0.26 | 0.26 | 89 | 1021.9 |
| 20260505011508 | 65 | 43 | 1.0 | 7.0 | 0.05 | 0.26 | 0.26 | 88 | 1022.0 |
| 20260505011005 | 64 | 321 | 2.0 | 3.0 | 0.07 | 0.25 | 0.25 | 88 | 1022.2 |
| 20260505010501 | 64 | 68 | 0.0 | 3.0 | 0.07 | 0.25 | 0.25 | 88 | 1022.2 |
| 20260505005957 | 64 | 86 | 1.0 | 2.0 | 0.05 | 0.24 | 0.24 | 88 | 1022.1 |
| 20260505005454 | 64 | 5 | 1.0 | 3.0 | 0.05 | 0.24 | 0.24 | 88 | 1022.0 |
| 20260505004952 | 64 | 325 | 3.0 | 3.0 | 0.07 | 0.23 | 0.23 | 88 | 1022.0 |
| 20260505004448 | 65 | 343 | 4.0 | 4.0 | 0.07 | 0.23 | 0.23 | 88 | 1021.9 |
| 20260505003945 | 65 | 338 | 0.0 | 1.0 | 0.05 | 0.22 | 0.22 | 88 | 1022.0 |
| 20260505003442 | 65 | 38 | 1.0 | 3.0 | 0.12 | 0.22 | 0.22 | 88 | 1022.2 |
| 20260505002938 | 65 | 95 | 0.0 | 1.0 | 0.07 | 0.21 | 0.21 | 88 | 1022.0 |
| 20260505002435 | 65 | 88 | 0.0 | 3.0 | 0.05 | 0.20 | 0.20 | 88 | 1022.2 |
| 20260505001933 | 65 | 5 | 2.0 | 3.0 | 0.12 | 0.20 | 0.20 | 88 | 1022.0 |
| 20260505001431 | 64 | 91 | 0.0 | 1.0 | 0.12 | 0.19 | 0.19 | 87 | 1022.2 |
| 20260505000927 | 64 | 180 | 1.0 | 1.0 | 0.05 | 0.18 | 0.18 | 87 | 1022.3 |
| 20260505000428 | 64 | 73 | 0.0 | 1.0 | 0.00 | 0.17 | 0.17 | 87 | 1022.1 |
| 20260504235922 | 64 | 48 | 0.0 | 3.0 | 0.00 | 0.17 | 0.17 | 87 | 1022.1 |
| 20260504235420 | 64 | 59 | 1.0 | 2.0 | 0.00 | 0.17 | 0.17 | 87 | 1022.2 |
| 20260504234915 | 64 | 76 | 0.0 | 2.0 | 0.00 | 0.17 | 0.17 | 88 | 1022.1 |
| 20260504234408 | 64 | 270 | 2.0 | 7.0 | 0.00 | 0.17 | 0.17 | 87 | 1022.1 |
| 20260504233904 | 64 | 29 | 2.0 | 7.0 | 0.00 | 0.17 | 0.17 | 87 | 1022.1 |
| 20260504233400 | 64 | 93 | 0.0 | 2.0 | 0.00 | 0.17 | 0.17 | 88 | 1022.1 |
| 20260504232856 | 64 | 90 | 0.0 | 2.0 | 0.00 | 0.17 | 0.17 | 88 | 1022.2 |
| 20260504232354 | 64 | 14 | 3.0 | 6.0 | 0.00 | 0.17 | 0.17 | 88 | 1022.0 |
| 20260504231850 | 64 | 302 | 1.0 | 3.0 | 0.00 | 0.17 | 0.17 | 88 | 1022.1 |
| 20260504231347 | 64 | 92 | 0.0 | 2.0 | 0.00 | 0.17 | 0.17 | 88 | 1022.0 |
| 20260504230843 | 64 | 85 | 1.0 | 2.0 | 0.00 | 0.17 | 0.17 | 88 | 1022.0 |
| 20260504230341 | 64 | 58 | 1.0 | 2.0 | 0.00 | 0.17 | 0.17 | 88 | 1021.9 |
| 20260504225840 | 63 | 316 | 1.0 | 3.0 | 0.00 | 0.17 | 0.17 | 88 | 1021.8 |
| 20260504225335 | 63 | 340 | 4.0 | 7.0 | 0.00 | 0.17 | 0.17 | 88 | 1021.7 |
| 20260504224833 | 63 | 330 | 2.0 | 3.0 | 0.00 | 0.17 | 0.17 | 89 | 1021.8 |
| 20260504224329 | 63 | 93 | 0.0 | 1.0 | 0.00 | 0.17 | 0.17 | 89 | 1021.9 |
| 20260504223826 | 63 | 76 | 0.0 | 3.0 | 0.00 | 0.17 | 0.17 | 89 | 1021.8 |
| 20260504223322 | 63 | 93 | 0.0 | 1.0 | 0.00 | 0.17 | 0.17 | 89 | 1021.6 |
| 20260504222819 | 62 | 91 | 0.0 | 1.0 | 0.00 | 0.17 | 0.17 | 89 | 1021.6 |
| 20260504222316 | 62 | 109 | 0.0 | 0.0 | 0.00 | 0.17 | 0.17 | 90 | 1021.7 |
| 20260504221814 | 62 | 7 | 1.0 | 1.0 | 0.00 | 0.17 | 0.17 | 89 | 1021.4 |
| 20260504221310 | 62 | 340 | 1.0 | 6.0 | 0.00 | 0.17 | 0.17 | 90 | 1021.7 |
| 20260504220808 | 62 | 182 | 0.0 | 0.0 | 0.00 | 0.17 | 0.17 | 89 | 1021.5 |
| 20260504220304 | 62 | 97 | 0.0 | 2.0 | 0.00 | 0.17 | 0.17 | 89 | 1021.6 |
| 20260504215802 | 62 | 68 | 1.0 | 3.0 | 0.00 | 0.17 | 0.17 | 89 | 1021.5 |
| 20260504215258 | 61 | 26 | 2.0 | 6.0 | 0.00 | 0.17 | 0.17 | 89 | 1021.6 |
| 20260504214754 | 61 | 312 | 3.0 | 4.0 | 0.00 | 0.17 | 0.17 | 90 | 1021.2 |
| 20260504214251 | 61 | 287 | 4.0 | 6.0 | 0.00 | 0.17 | 0.17 | 90 | 1021.3 |
| 20260504213747 | 61 | 22 | 0.0 | 3.0 | 0.00 | 0.17 | 0.17 | 90 | 1021.0 |
| 20260504213243 | 61 | 21 | 2.0 | 3.0 | 0.00 | 0.17 | 0.17 | 91 | 1021.1 |
| 20260504212741 | 62 | 109 | 0.0 | 2.0 | 0.00 | 0.17 | 0.17 | 91 | 1021.1 |
| 20260504212237 | 62 | 80 | 0.0 | 3.0 | 0.07 | 0.17 | 0.17 | 91 | 1020.7 |
| 20260504211735 | 62 | 63 | 0.0 | 2.0 | 0.00 | 0.16 | 0.16 | 91 | 1021.0 |
| 20260504211231 | 62 | 62 | 1.0 | 1.0 | 0.00 | 0.16 | 0.16 | 91 | 1020.9 |
| 20260504210728 | 62 | 319 | 0.0 | 0.0 | 0.00 | 0.16 | 0.16 | 91 | 1020.8 |
| 20260504210226 | 62 | 99 | 0.0 | 0.0 | 0.00 | 0.16 | 0.16 | 91 | 1020.9 |
| 20260504205722 | 61 | 98 | 0.0 | 0.0 | 0.00 | 0.16 | 0.16 | 91 | 1021.0 |
| 20260504205220 | 61 | 358 | 1.0 | 2.0 | 0.00 | 0.16 | 0.16 | 91 | 1020.6 |
| 20260504204718 | 61 | 85 | 1.0 | 2.0 | 0.00 | 0.16 | 0.16 | 91 | 1020.5 |
| 20260504204216 | 61 | 52 | 0.0 | 2.0 | 0.00 | 0.16 | 0.16 | 91 | 1020.6 |
| 20260504203715 | 61 | 93 | 0.0 | 3.0 | 0.00 | 0.16 | 0.16 | 91 | 1020.3 |
| 20260504203212 | 61 | 7 | 1.0 | 3.0 | 0.00 | 0.16 | 0.16 | 91 | 1020.5 |
| 20260504202712 | 61 | 48 | 0.0 | 4.0 | 0.00 | 0.16 | 0.16 | 91 | 1020.3 |
| 20260504202209 | 61 | 75 | 2.0 | 2.0 | 0.00 | 0.16 | 0.16 | 91 | 1020.3 |
| 20260504201706 | 60 | 75 | 0.0 | 0.0 | 0.00 | 0.16 | 0.16 | 91 | 1020.4 |
| 20260504201204 | 60 | 84 | 1.0 | 3.0 | 0.00 | 0.16 | 0.16 | 91 | 1020.4 |
| 20260504200701 | 60 | 354 | 2.0 | 3.0 | 0.00 | 0.16 | 0.16 | 91 | 1020.4 |
| 20260504200157 | 60 | 314 | 2.0 | 4.0 | 0.00 | 0.16 | 0.16 | 92 | 1020.2 |
| 20260504195653 | 61 | 350 | 2.0 | 4.0 | 0.00 | 0.16 | 0.16 | 92 | 1020.2 |
| 20260504195149 | 61 | 81 | 1.0 | 3.0 | 0.05 | 0.16 | 0.16 | 92 | 1020.4 |
| 20260504194646 | 61 | 359 | 3.0 | 7.0 | 0.05 | 0.16 | 0.16 | 92 | 1020.4 |
| 20260504194142 | 61 | 348 | 5.0 | 7.0 | 0.00 | 0.15 | 0.15 | 92 | 1020.5 |
| 20260504193639 | 61 | 329 | 2.0 | 8.0 | 0.00 | 0.15 | 0.15 | 92 | 1020.6 |
| 20260504193137 | 60 | 298 | 2.0 | 4.0 | 0.00 | 0.15 | 0.15 | 92 | 1020.6 |
| 20260504192635 | 60 | 11 | 3.0 | 6.0 | 0.00 | 0.15 | 0.15 | 92 | 1020.7 |
| 20260504192133 | 60 | 76 | 3.0 | 4.0 | 0.00 | 0.15 | 0.15 | 92 | 1020.9 |
| 20260504191631 | 60 | 324 | 4.0 | 6.0 | 0.00 | 0.15 | 0.15 | 92 | 1020.9 |
| 20260504191127 | 60 | 282 | 4.0 | 6.0 | 0.00 | 0.15 | 0.15 | 92 | 1021.2 |
| 20260504190623 | 60 | 299 | 4.0 | 8.0 | 0.00 | 0.15 | 0.15 | 92 | 1021.3 |
| 20260504190120 | 60 | 35 | 2.0 | 7.0 | 0.00 | 0.15 | 0.15 | 92 | 1021.3 |
| 20260504185616 | 60 | 319 | 3.0 | 6.0 | 0.07 | 0.15 | 0.15 | 92 | 1021.1 |
| 20260504185113 | 60 | 358 | 3.0 | 7.0 | 0.14 | 0.15 | 0.15 | 92 | 1021.2 |
| 20260504184609 | 60 | 311 | 3.0 | 6.0 | 0.07 | 0.14 | 0.14 | 92 | 1021.4 |
| 20260504184104 | 60 | 336 | 2.0 | 8.0 | 0.05 | 0.13 | 0.13 | 92 | 1021.4 |
| 20260504183601 | 60 | 314 | 4.0 | 6.0 | 0.17 | 0.13 | 0.13 | 92 | 1021.3 |
| 20260504183059 | 60 | 311 | 6.0 | 8.0 | 0.12 | 0.12 | 0.12 | 91 | 1021.1 |
| 20260504182556 | 60 | 288 | 3.0 | 6.0 | 0.07 | 0.10 | 0.10 | 91 | 1021.3 |
| 20260504182053 | 60 | 315 | 4.0 | 6.0 | 0.05 | 0.09 | 0.09 | 91 | 1021.3 |
| 20260504181550 | 59 | 303 | 6.0 | 9.0 | 0.12 | 0.09 | 0.09 | 91 | 1021.3 |
| 20260504181048 | 59 | 73 | 0.0 | 4.0 | 0.12 | 0.08 | 0.08 | 91 | 1021.6 |
| 20260504180547 | 59 | 328 | 1.0 | 4.0 | 0.12 | 0.07 | 0.07 | 91 | 1021.6 |
| 20260504180046 | 59 | 76 | 0.0 | 4.0 | 0.12 | 0.06 | 0.06 | 90 | 1021.4 |
| 20260504175542 | 59 | 6 | 1.0 | 2.0 | 0.12 | 0.05 | 0.05 | 90 | 1021.3 |
| 20260504175039 | 59 | 353 | 3.0 | 6.0 | 0.07 | 0.04 | 0.04 | 90 | 1021.5 |
| 20260504174537 | 59 | 333 | 3.0 | 4.0 | 0.07 | 0.03 | 0.03 | 89 | 1021.7 |
| 20260504174034 | 59 | 269 | 6.0 | 7.0 | 0.07 | 0.03 | 0.03 | 89 | 1021.8 |
| 20260504173530 | 59 | 292 | 2.0 | 3.0 | 0.12 | 0.02 | 0.02 | 88 | 1022.0 |
| 20260504173023 | 60 | 341 | 1.0 | 6.0 | 0.07 | 0.01 | 0.01 | 87 | 1022.0 |
| 20260504172519 | 60 | 226 | 1.0 | 6.0 | 0.00 | 0.00 | 0.00 | 87 | 1021.9 |
| 20260504172015 | 60 | 310 | 3.0 | 4.0 | 0.00 | 0.00 | 0.00 | 86 | 1021.8 |
| 20260504171512 | 61 | 279 | 1.0 | 2.0 | 0.00 | 0.00 | 0.00 | 86 | 1021.8 |
| 20260504171009 | 60 | 101 | 0.0 | 2.0 | 0.00 | 0.00 | 0.00 | 86 | 1021.9 |
| 20260504170505 | 61 | 25 | 1.0 | 6.0 | 0.00 | 0.00 | 0.00 | 85 | 1021.8 |
| 20260504160425 | 62 | 296 | 5.0 | 11.0 | 0.00 | 0.00 | 0.00 | 86 | 1022.0 |
| 20260504150849 | 63 | 79 | 1.0 | 7.0 | 0.00 | 0.00 | 0.00 | 86 | 1022.6 |
| 20260504150346 | 63 | 272 | 2.0 | 4.0 | 0.00 | 0.00 | 0.00 | 86 | 1022.7 |
| 20260504141316 | 63 | 344 | 3.0 | 4.0 | 0.00 | 0.93 | 0.93 | 85 | 1022.4 |
| 20260504140812 | 64 | 294 | 2.0 | 4.0 | 0.00 | 0.93 | 0.93 | 85 | 1022.3 |
| 20260504140308 | 64 | 299 | 4.0 | 7.0 | 0.00 | 0.93 | 0.93 | 84 | 1022.6 |
| 20260504130737 | 64 | 272 | 4.0 | 7.0 | 0.00 | 0.93 | 0.93 | 83 | 1022.5 |
| 20260504130233 | 64 | 331 | 8.0 | 13.0 | 0.00 | 0.93 | 0.93 | 82 | 1022.4 |
| 20260504120156 | 66 | 325 | 2.0 | 7.0 | 0.00 | 0.93 | 0.93 | 76 | 1021.9 |
| 20260504110624 | 66 | 280 | 1.0 | 2.0 | 0.00 | 0.92 | 0.92 | 76 | 1021.3 |
| 20260504110120 | 66 | 90 | 0.0 | 1.0 | 0.00 | 0.92 | 0.92 | 75 | 1021.1 |
| 20260504100545 | 66 | 81 | 0.0 | 0.0 | 0.00 | 0.92 | 0.92 | 76 | 1020.8 |
| 20260504081939 | 65 | 60 | 1.0 | 2.0 | 0.00 | 0.92 | 0.92 | 77 | 1020.3 |
| 20260504081436 | 65 | 354 | 1.0 | 2.0 | 0.00 | 0.92 | 0.92 | 77 | 1020.2 |
| 20260504080932 | 64 | 87 | 1.0 | 2.0 | 0.00 | 0.92 | 0.92 | 77 | 1020.2 |
| 20260504080428 | 64 | 59 | 0.0 | 1.0 | 0.00 | 0.92 | 0.92 | 77 | 1020.4 |
| 20260504070350 | 65 | 52 | 1.0 | 6.0 | 0.00 | 0.88 | 0.88 | 81 | 1020.3 |
| 20260504050737 | 68 | 345 | 2.0 | 3.0 | 0.00 | 0.78 | 0.78 | 76 | 1019.9 |
| 20260504050235 | 68 | 287 | 1.0 | 8.0 | 0.00 | 0.78 | 0.78 | 76 | 1019.9 |
| 20260504045732 | 68 | 29 | 4.0 | 13.0 | 0.00 | 0.78 | 0.78 | 76 | 1020.2 |
| 20260504045227 | 68 | 91 | 4.0 | 6.0 | 0.00 | 0.78 | 0.78 | 77 | 1019.8 |
| 20260504044725 | 67 | 66 | 1.0 | 9.0 | 0.00 | 0.78 | 0.78 | 78 | 1020.1 |
| 20260504044222 | 67 | 333 | 2.0 | 6.0 | 0.00 | 0.78 | 0.78 | 78 | 1020.4 |
| 20260504043719 | 67 | 9 | 3.0 | 7.0 | 0.00 | 0.78 | 0.78 | 78 | 1020.2 |
| 20260504043215 | 67 | 347 | 4.0 | 8.0 | 0.00 | 0.78 | 0.78 | 77 | 1020.3 |
| 20260504042713 | 67 | 93 | 3.0 | 4.0 | 0.00 | 0.78 | 0.78 | 78 | 1020.5 |
| 20260504042210 | 68 | 26 | 4.0 | 4.0 | 0.00 | 0.78 | 0.78 | 79 | 1020.4 |
| 20260504041706 | 68 | 268 | 2.0 | 4.0 | 0.00 | 0.78 | 0.78 | 80 | 1020.4 |
| 20260504041201 | 68 | 51 | 0.0 | 4.0 | 0.00 | 0.78 | 0.78 | 81 | 1020.7 |
| 20260504040658 | 69 | 296 | 5.0 | 8.0 | 0.00 | 0.78 | 0.78 | 81 | 1020.6 |
| 20260504040155 | 69 | 43 | 1.0 | 1.0 | 0.00 | 0.78 | 0.78 | 83 | 1020.6 |
| 20260504035652 | 69 | 298 | 2.0 | 4.0 | 0.00 | 0.78 | 0.78 | 83 | 1020.7 |
| 20260504035149 | 69 | 98 | 1.0 | 3.0 | 0.00 | 0.78 | 0.78 | 83 | 1020.6 |
| 20260504034647 | 69 | 317 | 2.0 | 2.0 | 0.05 | 0.78 | 0.78 | 82 | 1020.9 |
| 20260504034143 | 69 | 128 | 1.0 | 4.0 | 0.05 | 0.78 | 0.78 | 82 | 1020.8 |
| 20260504033641 | 69 | 95 | 1.0 | 4.0 | 0.00 | 0.77 | 0.77 | 82 | 1020.9 |
| 20260504033138 | 69 | 359 | 1.0 | 1.0 | 0.00 | 0.77 | 0.77 | 83 | 1021.1 |
| 20260504032635 | 68 | 79 | 1.0 | 6.0 | 0.00 | 0.77 | 0.77 | 83 | 1021.1 |
| 20260504032132 | 68 | 273 | 2.0 | 4.0 | 0.00 | 0.77 | 0.77 | 84 | 1021.0 |
| 20260504031629 | 68 | 121 | 0.0 | 4.0 | 0.00 | 0.77 | 0.77 | 84 | 1021.2 |
| 20260504031125 | 68 | 43 | 0.0 | 3.0 | 0.00 | 0.77 | 0.77 | 85 | 1021.0 |
| 20260504030622 | 68 | 219 | 1.0 | 3.0 | 0.00 | 0.77 | 0.77 | 85 | 1021.1 |
| 20260504030119 | 68 | 156 | 3.0 | 6.0 | 0.00 | 0.77 | 0.77 | 85 | 1021.0 |
| 20260504025616 | 68 | 356 | 2.0 | 4.0 | 0.00 | 0.77 | 0.77 | 85 | 1020.8 |
| 20260504025113 | 68 | 84 | 0.0 | 3.0 | 0.00 | 0.77 | 0.77 | 85 | 1020.7 |
| 20260504024610 | 67 | 318 | 2.0 | 8.0 | 0.00 | 0.77 | 0.77 | 85 | 1020.7 |
| 20260504024107 | 67 | 216 | 3.0 | 8.0 | 0.00 | 0.77 | 0.77 | 87 | 1020.4 |
| 20260504023603 | 67 | 285 | 2.0 | 3.0 | 0.00 | 0.77 | 0.77 | 89 | 1020.6 |
| 20260504023059 | 67 | 77 | 0.0 | 1.0 | 0.00 | 0.77 | 0.77 | 89 | 1020.8 |
| 20260504022555 | 66 | 108 | 0.0 | 3.0 | 0.00 | 0.77 | 0.77 | 88 | 1020.8 |
| 20260504022051 | 66 | 349 | 1.0 | 3.0 | 0.07 | 0.77 | 0.77 | 88 | 1020.5 |
| 20260504021549 | 66 | 251 | 2.0 | 4.0 | 0.12 | 0.77 | 0.77 | 87 | 1020.3 |
| 20260504021046 | 66 | 61 | 3.0 | 6.0 | 0.05 | 0.76 | 0.76 | 87 | 1020.4 |
| 20260504020543 | 66 | 76 | 1.0 | 3.0 | 0.07 | 0.75 | 0.75 | 86 | 1020.5 |
| 20260504020039 | 66 | 260 | 2.0 | 2.0 | 0.07 | 0.75 | 0.75 | 86 | 1020.6 |
| 20260504015536 | 65 | 288 | 1.0 | 6.0 | 0.05 | 0.74 | 0.74 | 85 | 1020.6 |
| 20260504015032 | 65 | 301 | 4.0 | 10.0 | 0.17 | 0.74 | 0.74 | 84 | 1020.5 |